Weather History for Albemarle, NC

Change the Weather History Date:

Saturday, November 16, 2013

  Actual Average (KHBI) Record (KHBI)
Temperature  
Mean Temperature 56 °F -  
Max Temperature 65 °F 62 °F 83 °F (1958)
Min Temperature 46 °F 39 °F 21 °F (1969)
Degree Days  
Heating Degree Days 10    
Growing Degree Days 6 (Base 50)    
Moisture  
Dew Point 53 °F    
Average Humidity 92    
Maximum Humidity 100    
Minimum Humidity 72    
Precipitation  
Precipitation 0.00 in - - ()
Sea Level Pressure  
Sea Level Pressure 30.27 in    
Wind  
Wind Speed 1 mph (North)    
Max Wind Speed 6 mph    
Max Gust Speed -    
Visibility 9 miles    
Events Fog , Rain    
Averages and records for this station are not official NWS values.
T = Trace of Precipitation, MM = Missing Value Source: NWS Daily Summary

Daily Weather History Graph

Daily Weather History Graph

Search for Another Location

Airport:

Trip Planner

Search our weather history database for the weather conditions in past years. The results will help you decide how hot, cold, wet, or windy it might be!

Date:

Astronomy

Nov. 16, 2013 Rise Set
Actual Time 6:57 AM EST 5:13 PM EST
Civil Twilight 6:29 AM EST 5:40 PM EST
Nautical Twilight 5:59 AM EST 6:11 PM EST
Astronomical Twilight 5:28 AM EST 6:41 PM EST
Moon 4:46 PM EST (11/16) 5:53 AM EST (11/16)
Length of Visible Light 11h 10m
Length of Day
10h 16m
Waxing Gibbous, 99% of the Moon is Illuminated
Nov 16
Waxing Gibbous
Nov 17
Full
Nov 25
Last Quarter
Dec 2
New
Dec 9
First Quarter

Hourly Weather History & Observations

Time (EST) Temp. Dew Point Humidity Pressure Visibility Wind Dir Wind Speed Gust Speed Precip Events Conditions
12:15 AM 51.3 °F 49.1 °F 92% 30.27 in 10.0 mi Calm Calm - N/A   Overcast
12:35 AM 50.9 °F 49.3 °F 94% 30.26 in 10.0 mi Calm Calm - N/A Rain Light Rain
12:55 AM 50.7 °F 49.8 °F 97% 30.26 in 10.0 mi Calm Calm - N/A   Overcast
1:15 AM 50.9 °F 50.0 °F 97% 30.26 in 10.0 mi NNW 3.5 mph - N/A   Overcast
1:35 AM 50.9 °F 50.0 °F 97% 30.26 in 10.0 mi North 3.5 mph - N/A   Overcast
1:55 AM 50.9 °F 50.2 °F 97% 30.25 in 10.0 mi Calm Calm - N/A   Overcast
2:15 AM 51.1 °F 50.4 °F 97% 30.26 in 10.0 mi Calm Calm - N/A   Overcast
2:35 AM 51.1 °F 50.5 °F 98% 30.27 in 10.0 mi Calm Calm - N/A   Overcast
2:55 AM 51.3 °F 50.2 °F 96% 30.26 in 10.0 mi Calm Calm - N/A   Overcast
3:15 AM 51.3 °F 50.7 °F 98% 30.26 in 10.0 mi Calm Calm - N/A   Overcast
3:35 AM 51.3 °F 50.4 °F 97% 30.27 in 10.0 mi Calm Calm - N/A   Overcast
3:55 AM 51.8 °F 50.2 °F 94% 30.27 in 10.0 mi Calm Calm - N/A   Overcast
4:15 AM 51.8 °F 50.4 °F 95% 30.27 in 10.0 mi Calm Calm - N/A   Overcast
4:35 AM 51.8 °F 50.0 °F 94% 30.26 in 10.0 mi Calm Calm - N/A   Overcast
4:55 AM 50.9 °F 50.4 °F 98% 30.26 in 10.0 mi Calm Calm - N/A   Overcast
5:15 AM 50.4 °F 50.0 °F 99% 30.26 in 10.0 mi Calm Calm - N/A   Overcast
5:35 AM 50.4 °F 50.0 °F 99% 30.26 in 10.0 mi North - - N/A   Overcast
5:55 AM 50.9 °F 50.2 °F 97% 30.27 in 10.0 mi Calm Calm - N/A   Overcast
6:15 AM 49.6 °F 49.6 °F 100% 30.26 in 10.0 mi Calm Calm - N/A   Overcast
6:35 AM 48.7 °F 48.7 °F 100% 30.27 in 10.0 mi Calm Calm - N/A   Scattered Clouds
6:55 AM 47.1 °F 47.1 °F 100% 30.27 in 1.5 mi Calm Calm - N/A   Mist
7:15 AM 46.2 °F 46.2 °F 100% 30.27 in 0.2 mi Calm Calm - N/A Fog Fog
7:35 AM 47.5 °F 47.5 °F 100% 30.29 in 4.0 mi Calm Calm - N/A   Scattered Clouds
7:55 AM 50.4 °F 50.4 °F 100% 30.29 in 5.0 mi Calm Calm - N/A   Mostly Cloudy
8:15 AM 52.9 °F 52.0 °F 97% 30.29 in 10.0 mi Calm Calm - N/A   Overcast
8:35 AM 54.0 °F 52.5 °F 95% 30.30 in 10.0 mi NE 3.5 mph - N/A   Overcast
8:55 AM 54.1 °F 52.7 °F 95% 30.30 in 10.0 mi Calm Calm - N/A   Overcast
9:15 AM 54.9 °F 53.1 °F 94% 30.30 in 10.0 mi North 3.5 mph - N/A   Overcast
9:35 AM 55.8 °F 53.8 °F 93% 30.31 in 10.0 mi Calm Calm - N/A   Overcast
9:55 AM 57.4 °F 54.3 °F 90% 30.31 in 10.0 mi Calm Calm - N/A   Overcast
10:15 AM 57.9 °F 54.5 °F 88% 30.31 in 10.0 mi Calm Calm - N/A   Overcast
10:35 AM 58.6 °F 55.4 °F 89% 30.31 in 10.0 mi Calm Calm - N/A   Overcast
10:55 AM 59.7 °F 56.1 °F 88% 30.31 in 10.0 mi Calm Calm - N/A   Overcast
11:15 AM 60.1 °F 55.9 °F 86% 30.31 in 10.0 mi Calm Calm - N/A   Overcast
11:35 AM 61.2 °F 56.5 °F 85% 30.31 in 10.0 mi NNW 5.8 mph - N/A   Overcast
11:55 AM 61.9 °F 56.3 °F 82% 30.30 in 10.0 mi Calm Calm - N/A   Overcast
12:15 PM 61.9 °F 56.5 °F 82% 30.29 in 10.0 mi Calm Calm - N/A   Overcast
12:35 PM 62.1 °F 56.3 °F 81% 30.29 in 10.0 mi NNE 4.6 mph - N/A   Overcast
12:55 PM 62.2 °F 56.7 °F 82% 30.28 in 10.0 mi Calm Calm - N/A   Overcast
1:15 PM 63.1 °F 56.8 °F 80% 30.27 in 10.0 mi NW 3.5 mph - N/A   Overcast
1:35 PM 63.3 °F 56.8 °F 79% 30.27 in 10.0 mi NNW 4.6 mph - N/A   Overcast
1:55 PM 63.5 °F 56.7 °F 78% 30.26 in 10.0 mi North 3.5 mph - N/A   Overcast
2:15 PM 64.4 °F 56.7 °F 76% 30.25 in 10.0 mi Calm Calm - N/A   Scattered Clouds
2:35 PM 65.8 °F 56.8 °F 73% 30.25 in 10.0 mi Calm Calm - N/A   Scattered Clouds
2:55 PM 65.8 °F 56.7 °F 72% 30.25 in 10.0 mi NNE 5.8 mph - N/A   Mostly Cloudy
3:15 PM 64.6 °F 56.8 °F 76% 30.25 in 10.0 mi North 3.5 mph - N/A   Overcast
3:35 PM 64.4 °F 56.7 °F 76% 30.25 in 5.0 mi North 3.5 mph - N/A   Haze
3:55 PM 64.6 °F 56.8 °F 76% 30.24 in 10.0 mi Calm Calm - N/A   Overcast
4:15 PM 63.7 °F 56.7 °F 78% 30.25 in 10.0 mi NNE 5.8 mph - N/A   Overcast
4:35 PM 62.2 °F 56.5 °F 81% 30.25 in 10.0 mi NNE 4.6 mph - N/A   Scattered Clouds
4:55 PM 60.8 °F 56.3 °F 85% 30.25 in 10.0 mi Calm Calm - N/A   Clear
5:15 PM 59.0 °F 55.8 °F 89% 30.25 in 10.0 mi Calm Calm - N/A   Clear
5:35 PM 57.4 °F 54.9 °F 91% 30.25 in 10.0 mi Calm Calm - N/A   Scattered Clouds
5:55 PM 56.8 °F 55.4 °F 95% 30.25 in 10.0 mi Calm Calm - N/A   Mostly Cloudy
6:15 PM 56.8 °F 55.4 °F 95% 30.25 in 10.0 mi Calm Calm - N/A   Overcast
6:35 PM 56.3 °F 54.5 °F 94% 30.25 in 10.0 mi Calm Calm - N/A   Overcast
6:55 PM 56.1 °F 54.9 °F 96% 30.25 in 10.0 mi NNE 3.5 mph - N/A   Scattered Clouds
7:15 PM 54.0 °F 53.4 °F 98% 30.26 in 10.0 mi Calm Calm - N/A   Clear
7:35 PM 53.1 °F 53.1 °F 100% 30.26 in 10.0 mi Calm Calm - N/A   Scattered Clouds
7:55 PM 52.7 °F 52.5 °F 99% 30.27 in 10.0 mi North 3.5 mph - N/A   Overcast
8:15 PM 55.8 °F 55.0 °F 97% 30.27 in 10.0 mi NNE 4.6 mph - N/A   Overcast
8:35 PM 57.7 °F 55.8 °F 93% 30.28 in 10.0 mi North 4.6 mph - N/A   Overcast
8:55 PM 57.2 °F 55.6 °F 94% 30.28 in 10.0 mi NNE 3.5 mph - N/A   Overcast
9:15 PM 55.4 °F 54.5 °F 97% 30.28 in 10.0 mi North - - N/A   Scattered Clouds
9:35 PM 54.0 °F 54.0 °F 100% 30.28 in 7.0 mi North - - N/A   Mostly Cloudy
9:55 PM 54.0 °F 54.0 °F 100% 30.28 in 7.0 mi Calm Calm - N/A   Scattered Clouds
10:15 PM 52.2 °F 52.2 °F 100% 30.28 in 5.0 mi Calm Calm - N/A   Clear
10:35 PM 51.8 °F 51.8 °F 100% 30.27 in 2.5 mi Calm Calm - N/A   Clear
10:55 PM 51.1 °F 51.1 °F 100% 30.26 in 5.0 mi Calm Calm - N/A   Scattered Clouds
11:15 PM 50.0 °F 50.0 °F 100% 30.26 in 2.5 mi Calm Calm - N/A   Clear
11:35 PM 49.3 °F 49.3 °F 100% 30.26 in 3.0 mi Calm Calm - N/A   Scattered Clouds
11:55 PM 49.8 °F 49.8 °F 100% 30.26 in 4.0 mi Calm Calm - N/A   Mostly Cloudy